{"data":{"norad_id":68247,"epoch":"2026-09-20T00:53:40.757856Z","epoch_age_seconds":91527,"freshness":"FRESH","line1":"1 68247U 26054R   26263.03727729  .00012493  00000+0  38024-3 0  9998","line2":"2 68247  53.1582 103.7487 0001080  87.5304 272.5823 15.34402344 28895","mean_motion":15.34402344,"eccentricity":0.000108,"inclination_deg":53.1582,"raan_deg":103.7487,"arg_perigee_deg":87.5304,"mean_anomaly_deg":272.5823,"bstar":0.00038024,"rev_number":2889,"period_min":93.847614716626,"perigee_km":461.95746336048,"apogee_km":463.43508334752,"semimajor_km":6840.833273354,"source":"CELESTRAK","updated_at":"2026-09-20T09:00:43.842455Z"}}